This demonstration page uses our WeatherBlox Daily Observations layout. Learn more.

Left ArrowRight Arrow

Hourly Observations for October 12, 2015

Temp ( °F °C ) Dew Point ( °F °C ) Humidity (%) Winds ( mph kmh ) Pressure ( in mb ) Visibility ( mi km ) Precip ( " mm )
12:15 am 00:15 Clear 59 15.1 44 6.9 58 58 NNW 6 9 29.85 1011 10 16 N/A
12:35 am 00:35 Clear 59 15 44 6.9 59 59 NNW 7 11 29.85 1011 10 16 N/A
12:55 am 00:55 Clear 58 14.4 44 6.8 61 61 NNW 6 9 29.85 1011 10 16 N/A
1:15 am 01:15 Clear 55 12.5 44 6.5 67 67 NW 7 11 29.85 1011 10 16 N/A
1:35 am 01:35 Clear 54 12.3 43 6.2 67 67 NW 7 11 29.91 1013 10 16 N/A
1:55 am 01:55 Clear 51 10.8 43 6.1 73 73 NW 6 9 29.91 1013 10 16 N/A
2:15 am 02:15 Clear 50 10 43 6.1 77 77 NW 9 15 29.91 1013 10 16 N/A
2:35 am 02:35 Clear 49 9.5 43 5.9 78 78 NW 8 13 29.91 1013 10 16 N/A
2:55 am 02:55 Clear 50 10 43 6 76 76 NW 7 11 29.94 1014 10 16 N/A
3:15 am 03:15 Clear 47 8.5 41 5 79 79 NW 5 7 30.00 1016 10 16 N/A
3:35 am 03:35 Clear 47 8.6 41 5 78 78 W 6 9 30.00 1016 10 16 N/A
3:55 am 03:55 Clear 46 7.8 42 5.3 84 84 W 6 9 30.00 1016 10 16 N/A
4:15 am 04:15 Clear 46 7.6 41 5.1 84 84 W 7 11 30.00 1016 10 16 N/A
4:35 am 04:35 Clear 46 7.7 40 4.7 82 82 W 3 6 30.00 1016 10 16 N/A
4:55 am 04:55 Clear 45 7 40 4.2 83 83 W 7 11 30.00 1016 10 16 N/A
5:15 am 05:15 Clear 44 6.7 39 3.9 83 83 WNW 5 7 30.00 1016 10 16 N/A
5:35 am 05:35 Clear 44 6.5 39 3.7 83 83 WNW 7 11 30.03 1017 10 16 N/A
5:55 am 05:55 Clear 44 6.6 39 3.7 82 82 WNW 8 13 30.03 1017 10 16 N/A
6:15 am 06:15 Clear 43 6.1 38 3.5 84 84 WNW 6 9 30.06 1018 10 16 N/A
6:35 am 06:35 Clear 42 5.6 38 3.1 84 84 W 6 9 30.06 1018 10 16 N/A
6:55 am 06:55 Clear 41 5.2 37 2.9 85 85 W 8 13 30.06 1018 10 16 N/A
7:15 am 07:15 Clear 42 5.4 37 2.6 82 82 WNW 7 11 30.09 1019 10 16 N/A
7:35 am 07:35 Clear 43 5.9 37 2.6 80 80 NW 8 13 30.09 1019 10 16 N/A
7:55 am 07:55 Sunny 43 6.2 37 2.5 77 77 NW 9 15 30.09 1019 10 16 N/A
8:15 am 08:15 Sunny 43 6.3 37 2.9 79 79 NW 9 15 30.09 1019 10 16 N/A
8:35 am 08:35 Sunny 47 8.4 37 3 69 69 WNW 13 20 30.06 1018 10 16 N/A
8:55 am 08:55 Sunny 49 9.6 37 3 64 64 NW 13 20 30.06 1018 10 16 N/A
9:15 am 09:15 Sunny 52 10.9 37 2.5 56 56 NW 14 22 30.03 1017 10 16 N/A
9:35 am 09:35 Sunny 54 12 36 2.2 51 51 NW 16 26 30.03 1017 10 16 N/A
9:55 am 09:55 Sunny 56 13.5 37 2.5 48 48 NW 13 20 30.00 1016 10 16 N/A
10:15 am 10:15 Sunny 59 15.1 34 1.3 39 39 WNW 17 28 30.00 1016 10 16 N/A
10:35 am 10:35 Sunny 60 15.8 33 0.5 36 36 WNW 23 37 30.00 1016 10 16 N/A
10:55 am 10:55 Sunny 61 16.2 32 0.1 34 34 WNW 18 30 30.00 1016 10 16 N/A
11:15 am 11:15 Sunny 63 17.1 33 0.7 33 33 WNW 17 28 29.97 1015 10 16 N/A
11:35 am 11:35 Sunny 65 18.2 33 0.4 30 30 NW 18 30 29.97 1015 10 16 N/A
11:55 am 11:55 Sunny 66 19 32 0.1 28 28 NW 25 41 29.97 1015 10 16 N/A
12:15 pm 12:15 Sunny 67 19.7 32 -0.2 26 26 NW 22 35 29.97 1015 10 16 N/A
12:35 pm 12:35 Sunny 67 19.7 31 -0.4 26 26 NW 18 30 29.97 1015 10 16 N/A
12:55 pm 12:55 Sunny 69 20.6 31 -0.4 25 25 NW 20 31 29.94 1014 10 16 N/A
1:15 pm 13:15 Sunny 70 20.9 31 -0.8 23 23 NW 22 35 29.94 1014 10 16 N/A
1:35 pm 13:35 Sunny 70 21.2 31 -0.7 23 23 NNW 18 30 29.94 1014 10 16 N/A
1:55 pm 13:55 Sunny 71 21.5 31 -0.7 23 23 NNW 16 26 29.91 1013 10 16 N/A
2:15 pm 14:15 Sunny 71 21.7 32 -0.1 23 23 NNW 16 26 29.91 1013 10 16 N/A
2:35 pm 14:35 Sunny 72 22.1 31 -0.6 22 22 NW 21 33 29.91 1013 10 16 N/A
2:55 pm 14:55 Sunny 72 22.1 30 -1.2 21 21 NNW 16 26 29.88 1012 10 16 N/A
3:15 pm 15:15 Sunny 72 22.2 30 -1.2 21 21 NW 16 26 29.88 1012 10 16 N/A
3:35 pm 15:35 Sunny 73 22.5 30 -1.3 20 20 NNW 20 31 29.88 1012 10 16 N/A
3:55 pm 15:55 Sunny 72 22.3 30 -1.2 21 21 NNW 21 33 29.88 1012 10 16 N/A
4:15 pm 16:15 Sunny 72 22.3 30 -1.1 21 21 NW 18 30 29.88 1012 10 16 N/A
4:35 pm 16:35 Sunny 72 22.3 29 -1.8 20 20 NNW 17 28 29.88 1012 10 16 N/A
4:55 pm 16:55 Sunny 72 22.2 29 -1.7 20 20 NNW 15 24 29.88 1012 10 16 N/A
5:15 pm 17:15 Sunny 72 22 29 -1.8 20 20 NW 15 24 29.88 1012 10 16 N/A
5:35 pm 17:35 Sunny 71 21.7 27 -2.9 19 19 NW 14 22 29.88 1012 10 16 N/A
5:55 pm 17:55 Sunny 70 21.2 28 -2.3 21 21 NNW 14 22 29.88 1012 10 16 N/A
6:15 pm 18:15 Sunny 69 20.5 30 -1.2 23 23 N 9 15 29.88 1012 10 16 N/A
6:35 pm 18:35 Sunny 66 18.8 32 0 28 28 NNW 8 13 29.91 1013 10 16 N/A
6:55 pm 18:55 Sunny 63 17.4 31 -0.3 30 30 N 8 13 29.91 1013 10 16 N/A
7:15 pm 19:15 Clear 61 16 30 -0.9 32 32 NNW 7 11 29.94 1014 10 16 N/A
7:35 pm 19:35 Clear 57 14.1 32 -0.1 38 38 NNW 5 7 29.94 1014 10 16 N/A
7:55 pm 19:55 Clear 57 13.9 32 -0.2 38 38 NW 3 6 29.97 1015 10 16 N/A
8:15 pm 20:15 Clear 52 11.1 36 2.1 54 54 WNW 5 7 30.00 1016 10 16 N/A
8:35 pm 20:35 Clear 51 10.3 36 2.1 57 57 W 6 9 30.00 1016 10 16 N/A
8:55 pm 20:55 Clear 51 10.4 36 2.1 57 57 W 7 11 30.00 1016 10 16 N/A
9:15 pm 21:15 Clear 49 9.6 37 2.5 62 62 W 5 7 30.00 1016 10 16 N/A
9:35 pm 21:35 Clear 49 9.4 36 2.2 61 61 W 3 6 30.03 1017 10 16 N/A
9:55 pm 21:55 Clear 48 8.9 37 2.6 65 65 W 6 9 30.03 1017 10 16 N/A
10:15 pm 22:15 Clear 47 8.3 36 2.4 67 67 W 6 9 30.03 1017 10 16 N/A
10:35 pm 22:35 Clear 47 8.5 35 1.9 64 64 W 7 11 30.03 1017 10 16 N/A
10:55 pm 22:55 Clear 45 7.3 36 2.3 71 71 WNW 6 9 30.03 1017 10 16 N/A
11:15 pm 23:15 Clear 43 6.3 36 2 74 74 N 6 9 30.06 1018 10 16 N/A
11:35 pm 23:35 Clear 42 5.5 37 2.5 81 81 WNW 5 7 30.09 1019 10 16 N/A
11:55 pm 23:55 Clear 43 6 36 2.4 78 78 WNW 7 11 30.09 1019 10 16 N/A

Powered by AerisWeather